This demonstration page uses our WeatherBlox Daily Observations layout. Learn more.

Left ArrowRight Arrow

39.01783, -85.05884

Hourly Observations for December 4, 2016

Temp ( °F °C ) Dew Point ( °F °C ) Humidity (%) Winds ( mph kmh ) Pressure ( in mb ) Visibility ( mi km ) Precip ( " mm )
12:38 am 00:38 Cloudy 37 3 30 -1 75 75 E 3 6 30.27 1025 10 16 N/A
12:52 am 00:52 Cloudy 37 2.8 30 -1.1 76 76 E 5 7 30.26 1025 10 16 N/A
1:52 am 01:52 Cloudy 36 2.2 31 -0.6 82 82 N N/A 30.26 1025 10 16 N/A
2:52 am 02:52 Cloudy 37 2.8 31 -0.6 79 79 ESE 6 9 30.25 1025 10 16 N/A
3:52 am 03:52 Cloudy 37 2.8 31 -0.6 79 79 E 6 9 30.22 1023 9 14 N/A
4:52 am 04:52 Cloudy 37 2.8 31 -0.6 79 79 E 6 9 30.22 1023 10 16 N/A
5:52 am 05:52 Cloudy 37 2.8 30 -1.1 76 76 E 6 9 30.21 1023 10 16 N/A
6:52 am 06:52 Mostly Cloudy 37 2.8 30 -1.1 76 76 ESE 6 9 30.21 1023 10 16 N/A
7:52 am 07:52 Cloudy 37 2.8 30 -1.1 76 76 ESE 9 15 30.19 1023 10 16 N/A
8:52 am 08:52 Cloudy 37 2.8 30 -1.1 76 76 ESE 10 17 30.17 1022 10 16 N/A
9:52 am 09:52 Cloudy 39 3.9 29 -1.7 67 67 ESE 9 15 30.14 1021 10 16 N/A
10:52 am 10:52 Cloudy 40 4.4 30 -1.1 68 68 ESE 12 19 30.12 1020 10 16 N/A
11:52 am 11:52 Cloudy 42 5.6 30 -1.1 62 62 E 13 20 30.06 1018 10 16 N/A
12:52 pm 12:52 Cloudy 43 6.1 31 -0.6 63 63 E 9 15 30.01 1016 10 16 N/A
1:52 pm 13:52 Cloudy 44 6.7 32 undefined 63 63 ESE 9 15 29.96 1015 10 16 N/A
2:52 pm 14:52 Cloudy 44 6.7 32 undefined 63 63 ESE 9 15 29.94 1014 10 16 N/A
3:49 pm 15:49 Cloudy with Haze 43 6 36 2 76 76 SE 14 22 29.94 1014 6 10 N/A
3:52 pm 15:52 Cloudy with Light Rain 42 5.6 35 1.7 76 76 SE 10 17 29.91 1013 5 8 N/A
4:24 pm 16:24 Cloudy 43 6 36 2 76 76 SE 10 17 29.94 1014 8 13 N/A
4:52 pm 16:52 Cloudy with Drizzle 41 5 37 2.8 86 86 SSE 7 11 29.92 1013 2 2 N/A
5:25 pm 17:25 Cloudy with Light Rain 39 4 39 4 100 100 E 5 7 29.94 1014 2 2 N/A
5:52 pm 17:52 Cloudy with Light Rain 40 4.4 39 3.9 97 97 ESE 6 9 29.90 1013 2 2 0.03 0.76
6:09 pm 18:09 Cloudy with Light Rain 40 4.4 39 3.9 97 97 ESE 9 15 29.91 1013 2 2 0.01 0.25
6:49 pm 18:49 Cloudy with Light Rain 41 5 39 4 93 93 SSE 7 11 29.91 1013 2 3 0.04 1.02
6:52 pm 18:52 Cloudy with Light Rain 41 5 40 4.4 96 96 SSE 6 9 29.89 1012 2 3 0.04 1.02
7:52 pm 19:52 Cloudy with Light Rain 42 5.6 41 5 96 96 S 8 13 29.88 1012 4 6 0.03 0.76
8:52 pm 20:52 Cloudy 43 6.1 42 5.6 97 97 SSW 8 13 29.87 1012 7 11 0.01 0.25
9:22 pm 21:22 Cloudy 45 7 43 6 93 93 SW 7 11 29.91 1013 8 13 N/A
9:52 pm 21:52 Cloudy 44 6.7 42 5.6 93 93 W 13 20 29.89 1012 10 16 N/A
10:52 pm 22:52 Cloudy 43 6.1 41 5 93 93 W 16 26 29.91 1013 10 16 N/A
11:44 pm 23:44 Cloudy 43 6 39 4 87 87 W 14 22 29.97 1015 10 16 N/A
11:52 pm 23:52 Cloudy 42 5.6 39 3.9 89 89 W 17 28 29.95 1014 10 16 N/A

Powered by AerisWeather